Location: Area 52 Observatory
(34.2620°N, 119.2590°W)
Time: 01:23:30
(UTC-07:00)

Tiangong 2 - Pass Details

Date: 18 March 2019
Orbit: 378 x 389 km, 42.8° (Epoch: 21 April)

Event Time Altitude Azimuth Distance (km) Brightness Sun altitude
Exits shadow 06:07:01 - 318° (NW) 1,449 3.6 -12.5°
Reaches altitude 10° 06:07:10 10° 319° (NW) 1,402 3.6 -12.5°
Maximum altitude 06:09:40 21° 12° (NNE) 925 3.2 -12.0°
Drops below altitude 10° 06:12:10 10° 64° (ENE) 1,406 5.2 -11.5°
Sets 06:14:34 0° 81° (E) 2,262 7.2 -11.0°
